This is the latest recevied weather packets stored in our database for station/object DO7ZT-13. If no packets are shown the sender has not sent any weather packets the latest 1 day(s).
| Time | Temp. | Humidity | Pressure | Rain* | Wind** | Luminosity | Snow |
|---|---|---|---|---|---|---|---|
| 1777986020 | 22.22° C | 55% | 1007.6 hPa | 0 mm | 0.89 m/s, 306° | - | - |
| 1777985708 | 21.11° C | 56% | 1007.6 hPa | 0 mm | 1.79 m/s, 278° | - | - |
| 1777985420 | 21.11° C | 57% | 1007.6 hPa | 0 mm | 0.89 m/s, 318° | - | - |
| 1777985108 | 21.11° C | 55% | 1007.5 hPa | 0 mm | 1.34 m/s, 314° | - | - |
| 1777984821 | 21.11° C | 56% | 1007.5 hPa | 0 mm | 2.68 m/s, 318° | - | - |
| 1777984508 | 21.11° C | 56% | 1007.5 hPa | 0 mm | 0.45 m/s, 314° | - | - |
| 1777984220 | 21.11° C | 57% | 1007.6 hPa | 0 mm | 1.34 m/s, 315° | - | - |
| 1777983908 | 21.11° C | 56% | 1007.6 hPa | 0 mm | 0.89 m/s, 342° | - | - |
| 1777983621 | 21.11° C | 56% | 1007.6 hPa | 0 mm | 0.89 m/s, 264° | - | - |
| 1777983308 | 22.22° C | 53% | 1007.8 hPa | 0 mm | 2.24 m/s, 306° | - | - |
| 1777983020 | 22.22° C | 51% | 1007.8 hPa | 0 mm | 0.89 m/s, 282° | - | - |
| 1777982708 | 21.11° C | 53% | 1007.8 hPa | 0 mm | 0.45 m/s, 37° | - | - |
| 1777982420 | 21.11° C | 54% | 1007.9 hPa | 0 mm | 0.89 m/s, 306° | - | - |
| 1777982108 | 21.11° C | 55% | 1007.9 hPa | 0 mm | 1.34 m/s, 0° | - | - |
| 1777981833 | 21.11° C | 56% | 1007.9 hPa | 0 mm | 0.45 m/s, 342° | - | - |
| 1777981521 | 20° C | 54% | 1007.9 hPa | 0 mm | 0.89 m/s, 308° | - | - |
| 1777981208 | 20° C | 55% | 1007.9 hPa | 0 mm | 1.34 m/s, 300° | - | - |
| 1777980921 | 21.11° C | 56% | 1007.9 hPa | 0 mm | 0.89 m/s, 308° | - | - |
| 1777980608 | 21.11° C | 56% | 1008 hPa | 0 mm | 1.34 m/s, 280° | - | - |
| 1777980321 | 20° C | 57% | 1008 hPa | 0 mm | 1.34 m/s, 354° | - | - |
| 1777980008 | 20° C | 57% | 1008 hPa | 0 mm | 0.89 m/s, 330° | - | - |
| 1777979720 | 20° C | 57% | 1008 hPa | 0 mm | 0.89 m/s, 309° | - | - |
| 1777979408 | 21.11° C | 54% | 1008 hPa | 0 mm | 0.89 m/s, 6° | - | - |
| 1777979120 | 21.11° C | 56% | 1008 hPa | 0 mm | 1.34 m/s, 328° | - | - |
| 1777978808 | 22.22° C | 55% | 1008 hPa | 0 mm | 0.89 m/s, 314° | - | - |
* Rain latest hour (hover to see other rain measurements)
** Current wind speed in m/s (hover to see current wind gust speed)